Regional Weather Roundup
Issued by NWS

Home | Current Version | Previous Version | Text Only | Print | Product List | Glossary On
Versions: 1 2 3 4 5 6 7 8 9 10 11 12 13 14 15 16 17 18 19 20 21 22 23 24 25 26 27 28 29 30 31 32 33 34 35 36 37 38 39 40 41 42 43 44 45 46 47 48 49 50
000
ASUS44 KFWD 310310
RWRTX
NORTH TEXAS HOURLY WEATHER ROUNDUP
NATIONAL WEATHER SERVICE FORT WORTH TX
1000 PM CDT MON MAY 30 2016

NOTE: "FAIR" INDICATES FEW OR NO CLOUDS BELOW 12,000 FEET WITH NO
SIGNIFICANT WEATHER AND/OR OBSTRUCTIONS TO VISIBILITY.

TXZ118-119-310400-
DALLAS/FORT WORTH METROPLEX

CITY           SKY/WX    TMP DP  RH WIND       PRES   REMARKS
DFW AIRPORT    CLOUDY    77  64  64 S7        29.91R
DALLAS LOVE    CLOUDY    80  65  59 S8        29.91R
FTW MEACHAM    CLOUDY    78  66  66 SE9       29.91S
DAL-EXECUTIVE  CLOUDY    74  65  73 SE5       29.91R
FTW-ALLIANCE   CLOUDY    74  65  73 S5        29.91R
FTW-NAS-JRB    MOCLDY    79  66  64 SE8       29.91S
FTW-SPINKS     CLOUDY    75  68  80 CALM      29.93S
ARLINGTON      MOCLDY    79  66  64 SE3       29.91R
GRAND PRAIRIE  CLOUDY    77  65  65 CALM      29.92S
ADDISON        PTCLDY    81  64  57 S6        29.92
MESQUITE       CLOUDY    73  68  84 S3        29.92R
LANCASTER      CLOUDY    75  66  73 CALM      29.92S
$$

TXZ091>094-102>105-117-120-121-131>134-310400-
NORTH CENTRAL TEXAS

CITY           SKY/WX    TMP DP  RH WIND       PRES   REMARKS
SHRMAN/DENISON CLEAR     71  60  69 SE5       29.94R
GAINESVILLE    PTCLDY    72  66  81 CALM      29.94S
BOWIE          CLEAR     71  67  87 SE3       29.93R
BRIDGEPORT     CLOUDY    74  68  81 SE5       29.93S
DECATUR        CLOUDY    73  65  74 SE6       29.94R
DENTON         CLOUDY    72  68  87 S5        29.91R
MCKINNEY       CLEAR     73  68  84 CALM      29.92R
GREENVILLE     PTCLDY    72  68  88 CALM      29.92R
ROCKWALL       CLEAR     74  67  76 S3        29.91R
TERRELL        CLOUDY    75  67  76 CALM      29.92R
WAXAHACHIE     CLOUDY    74  68  81 CALM      29.93S
CLEBURNE       CLOUDY    75  72  88 E5        29.93S
GRANBURY       CLOUDY    77  68  72 E7        29.92S
$$

TXZ083>090-098>101-113>116-127>130-139>142-154-155-310400-
WESTERN NORTH TEXAS

CITY           SKY/WX    TMP DP  RH WIND       PRES   REMARKS
WICHITA FALLS  CLEAR     73  66  78 SE9       29.90R
WF-KICKAPOO    CLEAR     76  68  75 SE9       29.92S
VERNON         PTCLDY    75  64  67 SE6       29.90F
ABILENE        CLOUDY    80  67  64 E5        29.91F
GRAHAM         CLOUDY    76  68  78 SE6       29.89S
MINERAL WELLS  CLOUDY    74  69  85 SE6       29.90S
STEPHENVILLE   CLOUDY    74  67  79 E5        29.95S
COMANCHE       CLOUDY    75  72  90 SE5       29.93R
BROWNWOOD      MOCLDY    75  68  78 SE6       29.92R
COLEMAN        CLOUDY    76  67  74 S6        29.94R
$$

TXZ143>147-156>162-174-175-310400-
CENTRAL TEXAS

CITY           SKY/WX    TMP DP  RH WIND       PRES   REMARKS
WACO           CLEAR     75  66  73 S6        29.91R
WACO-MCGREGOR  PTCLDY    74  69  85 SE6       29.91R
HILLSBORO      CLOUDY    73  68  82 E6        29.91F
CORSICANA      CLOUDY    79  69  71 CALM      29.92S
MEXIA          PTCLDY    76  68  75 SE3       29.91S
HEARNE         PTCLDY    76  69  77 CALM      29.92S
CAMERON        CLOUDY    77  69  75 S5        29.92R
TEMPLE         PTCLDY    75  68  78 SE6       29.92R
KILLEEN        NOT AVBL
KILLEEN-SKYLRK CLOUDY    78  67  68 SE7       29.93R
GATESVILLE     PTCLDY    75  68  78 CALM      29.94S
HAMILTON       CLOUDY    75  67  77 SE7       29.94R
LAMPASAS       CLOUDY    76  69  79 E3        29.94R
$$

TXZ095>097-106>112-122>126-135>138-148>153-164>167-310400-
EAST TEXAS

CITY           SKY/WX    TMP DP  RH WIND       PRES   REMARKS
PARIS          CLEAR     72  61  68 E6        29.94R
SULPHUR SPRNGS CLEAR     75  72  89 SE3       29.94R
MOUNT PLEASANT MOCLDY    73  73  98 CALM      29.94R
GILMER         CLEAR     73  70  89 CALM      29.93R
MINEOLA        CLEAR     73  72  94 CALM      29.93R
TYLER          MOCLDY    78  70  76 S5        29.93R
LONGVIEW       CLEAR     73  69  87 S7        29.91R
MARSHALL       CLEAR     72  69  91 CALM      29.95R
ATHENS         CLOUDY    73  73 100 CALM      29.91R
PALESTINE      MOCLDY    76  71  83 SE5       29.94R
JACKSONVILLE   CLEAR     75  70  83 S5        29.95R
HENDERSON      CLEAR     73  69  86 CALM      29.94R
CENTER         FAIR      75  73  96 CALM      29.93R
NACOGDOCHES    CLEAR     72  68  88 SE3       29.93R
LUFKIN         CLEAR     75  67  76 S5        29.93R
$$

SUPPLEMENTAL OBSERVATIONS (CENTRAL)

CITY           SKY/WX    TMP DP  RH WIND       PRES   REMARKS
CADDO GRASSLND   N/A     70  66  88 CALM        N/A
PAT MAYSE LAKE   N/A     73  72  94 E6          N/A
GREENVILLE       N/A     73  68  83 CALM        N/A
CEDAR HILL       N/A     73  66  78 SE1         N/A
MCGREGOR         N/A     75  64  69 SE5         N/A
TEMPLE           N/A     75  66  73 SE6         N/A
$$

SUPPLEMENTAL OBSERVATIONS (WEST)

CITY           SKY/WX    TMP DP  RH WIND       PRES   REMARKS
POSSUM KINGDOM   N/A     75  68  78 E7          N/A
LBJ GRASSLAND    N/A     73  64  73 SE5         N/A
GRANBURY         N/A     77  68  73 SE6         N/A
HAMBY            N/A     77  68  73 SE5         N/A
$$

SUPPLEMENTAL OBSERVATIONS (EAST)

CITY           SKY/WX    TMP DP  RH WIND       PRES   REMARKS
CLARKSVILLE      N/A     72  68  88 E2          N/A
TEXARKANA        N/A     70  66  88 E5          N/A
LINDEN           N/A     73  68  83 E3          N/A
GILMER           N/A     73  68  83 CALM        N/A
HENDERSON        N/A     73  68  83 S1          N/A
LUFKIN           N/A     73  68  83 MISG        N/A
N SABINE NF      N/A     73  70  88 MISG        N/A
S SABINE NF      N/A     73  70  88 CALM        N/A
$$

SUPPLEMENTAL OBSERVATIONS ARE A COLLECTION OF AUTOMATED INSTRUMENTS
THAT ARE MAINTAINED BY A VARIETY OF FEDERAL AND STATE AGENCIES.
CERTAIN ELEMENTS...SUCH AS HUMIDITY VALUES AND SUSTAINED WIND
SPEEDS...MAY BE APPROXIMATED.





USA.gov is the U.S. government's official web portal to all federal, state and local government web resources and services.